SENTINEL-1B

Last updated on Wed Sep 07 2022 00:02:30 GMT+0000 (Coordinated Universal Time)

1 41456U 16025A 22249.47005964 .00000218 00000+0 56034-4 0 9990 2 41456 98.1830 255.7070 0001331 95.4540 264.6811 14.59202267339003

Satellite not in orbit

SENTINEL-1B